Location: Bowman Observatory
(41.0326°N, 73.6210°W)
Time: 15:39:50
(UTC-04:00)

Cosmos 2297 - Visible Passes

Search period start: 27 May 2018 00:00
Search period end: 06 June 2018 00:00
Orbit: 835 x 859 km, 71.0° (Epoch: 27 May)

Date Brightness Start Highest point End Pass type
(mag) Time Alt. Az. Time Alt. Az. Time Alt. Az.
27 May 4.6 04:34:54 10° S 04:40:15 47° ESE 04:45:41 10° NE visible
28 May 4.6 04:21:33 10° S 04:26:54 46° ESE 04:32:18 10° NE visible
29 May 4.6 04:08:13 10° S 04:13:32 45° ESE 04:18:55 10° NE visible
30 May 4.6 03:54:52 10° S 04:00:10 44° ESE 04:05:32 10° NE visible
31 May 4.6 03:41:56 12° S 03:46:48 43° ESE 03:52:08 10° NE visible
01 Jun 4.6 03:29:11 15° S 03:33:26 42° ESE 03:38:45 10° NE visible
02 Jun 4.6 03:16:23 18° SSE 03:20:05 41° ESE 03:25:22 10° NE visible
03 Jun 4.6 03:03:33 22° SSE 03:06:43 40° ESE 03:11:59 10° NE visible
03 Jun 4.8 04:46:03 10° WSW 04:50:58 30° NW 04:55:56 10° N visible
04 Jun 4.6 02:50:40 25° SSE 02:53:21 39° ESE 02:58:36 10° NE visible
04 Jun 4.8 04:32:38 10° WSW 04:37:35 31° NW 04:42:35 10° N visible
05 Jun 4.6 02:37:44 27° SSE 02:39:59 39° ESE 02:45:12 10° NE visible
05 Jun 4.8 04:19:40 12° WSW 04:24:11 31° WNW 04:29:14 10° N visible
